Regional Weather Roundup
Issued by NWS

Home | Current Version | Previous Version | Text Only | Print | Product List | Glossary On
Versions: 1 2 3 4 5 6 7 8 9 10 11 12 13 14 15 16 17 18 19 20 21 22 23 24 25 26 27 28 29 30 31 32 33 34 35 36 37 38 39 40 41 42 43 44 45 46 47 48 49 50
000
ASUS44 KLUB 271801
RWRTX
WEST TEXAS WEATHER ROUNDUP
NATIONAL WEATHER SERVICE LUBBOCK TX
100 PM CDT FRI MAR 27 2015

NOTE: "FAIR" INDICATES FEW OR NO CLOUDS BELOW 12,000 FEET WITH NO
SIGNIFICANT WEATHER AND/OR OBSTRUCTIONS TO VISIBILITY.

TXZ004-006>008-010-012-014-016-OKZ002-271900-
TEXAS PANHANDLE/OKLAHOMA PANHANDLE

CITY           SKY/WX    TMP DP  RH WIND       PRES   REMARKS
AMARILLO       SUNNY     63  28  26 E6        30.23S
BORGER         SUNNY     58  30  34 S5        30.23F
CANADIAN       SUNNY     55  32  42 E5        30.25S
DALHART        SUNNY     62  29  28 VRB3      30.23F
DUMAS          SUNNY     61  29  29 SE7       30.22F
GUYMON         SUNNY     51  33  50 E6        30.23F
$$

TXZ026-029-035-045-048-271900-
SOUTHERN PANHANDLE/SOUTH PLAINS/ROLLING PLAINS

CITY           SKY/WX    TMP DP  RH WIND       PRES   REMARKS
CHILDRESS      SUNNY     63  31  30 E9G22     30.24F
SEMINOLE       SUNNY     73  29  20 W10G16    30.21F
LUBBOCK        PTSUNNY   69  27  20 S8        30.19F
$$

TXZ052-054-060>062-072-078-127-140-154-169-271900-
PERMIAN BASIN/CONCHO VALLEY/BIG COUNTRY/EDWARDS PLATEAU

CITY           SKY/WX    TMP DP  RH WIND       PRES   REMARKS
ABILENE        SUNNY     70  30  22 NW13      30.22F
BRADY          SUNNY     73  30  20 W12       30.21F
JUNCTION       SUNNY     73  31  21 W9        30.22F
MIDLAND        SUNNY     72  35  25 SW13      30.22S
ODESSA         SUNNY     73  31  21 SW17G23   30.22F
SAN ANGELO     SUNNY     74  32  21 W12       30.21F
WINK           SUNNY     73  33  23 SW10      30.20F
$$

TXZ055-058-074-075-080-082-271900-
FAR WEST/SOUTHWEST MOUNTAINS/TRANS PECOS

CITY           SKY/WX    TMP DP  RH WIND       PRES   REMARKS
DRYDEN           N/A     74  34  23 SW16G24   30.21F
EL PASO        FAIR      70  24  17 W10       30.28F
FORT STOCKTON  SUNNY     74  27  17 SW9       30.23F
GUADALUPE PASS SUNNY     65  28  24 W22       30.31F
MARFA          SUNNY     66  27  22 W13       30.33F
PECOS          SUNNY     75  34  22 SW13      30.20F
$$

TXZ014-016-019-021>030-083-271900
TEXAS TECH WEST TEXAS MESONET/TEXAS PANHANDLE/NORTHERN SOUTH PLAINS

CITY           SKY/WX    TMP DP  RH WIND       PRES   REMARKS
ABERNATHY 5ENE   N/A     69  29  22 S9        30.21S
AMARILLO 9NNE    N/A     63  28  26 N1        30.22S
AMARILLO 7SSE    N/A     64  28  26 SE8       30.23S
AMHERST 1NE      N/A     66  26  22 CALM      30.20F
BOOTLEG 11WNW    N/A     65  25  22 N7        30.24F
CANADIAN 6E      N/A     52  29  41 N2        30.24S
CAPROCK CYN SP   N/A     63  29  27 S5        30.24F
CHILDRESS 2NNE   N/A     63  31  30 NE10      30.23F
CLARENDON 2WSW   N/A     61  30  30 E5        30.23F
CLAUDE 12SW      N/A     61  29  30 SE7       30.22F
DIMMITT 2NE      N/A     66  25  21 SE3       30.21F
FLOYDADA 2NNE    N/A     66  22  18 NW2       30.22S
GOODLETT 3W      N/A     62  31  31 NE12      30.24S
HART 3N          N/A     66  27  23 NE5       30.22S
HEREFORD 2NW     N/A     65  23  19 NE5       30.22S
MCLEAN 1E        N/A     59  30  33 E7        30.22F
MEMPHIS 1NE      N/A     63  30  29 NE7       30.23F
MULESHOE 2SSW    N/A     66  28  24 NW3       30.21F
OLTON 6S         N/A     65  28  24 SE1       30.21S
PALO DURO SP     N/A     65  27  24 S7        30.23F
PAMPA 2E         N/A     56  32  39 SE2       30.24F
PLAINVIEW 1S     N/A     65  31  28 SE5       30.21S
SILVERTON 7ESE   N/A     62  29  29 E7        30.23F
TULIA 2ENE       N/A     65  29  25 SE3       30.21F
TURKEY 2WSW      N/A     64  30  27 SE8       30.23S
UMBARGER 3NNE    N/A     64  28  25 SE6       30.23S
$$

TXZ033>036-039>041-045>048-271900
TEXAS TECH WEST TEXAS MESONET/SOUTH PLAINS

CITY           SKY/WX    TMP DP  RH WIND       PRES   REMARKS
AIKEN 3WSW       N/A     65  30  27 NE2       30.23S
ANDREWS 2NE      N/A     74  28  18 SW12      30.21F
ANTON 6SSW       N/A     67  26  21 SW3       30.20S
BROWNFIELD 2S    N/A     70  25  18 W5        30.19F
DENVR CTY 7WNW   N/A     72  19  13 W9        30.20F
GAIL 2ESE        N/A     72  31  22 SW8       30.19F
LAMESA 2SE       N/A     73  29  19 W8        30.20F
LEVELLAND 4S     N/A     67  23  19 W1        30.20F
LUBBOCK 3WNW     N/A     68  25  19 SW5       30.20F
MORTON 1ENE      N/A     67  26  21 NW3       30.20F
ODONNELL 1N      N/A     71  25  17 SW9       30.20F
PLAINS 3N        N/A     70  26  19 N7        30.21S
RALLS 1SE        N/A     68  27  21 SE5       30.22F
REESE CENTER     N/A     68  24  19 SW6       30.20S
SEAGRAVES 1SW    N/A     72  26  18 W6        30.19F
SEMINOLE 2NNE    N/A     73  27  18 W7        30.20F
SLATON 2NE       N/A     70  29  21 SE10      30.20F
SNYDER 3E        N/A     68  31  25 NE1       30.21F
SUNDOWN 8SW      N/A     68  24  19 W3        30.20F
TAHOKA 3NNE      N/A     69  29  22 SW7       30.20S
WOLFFORTH 6SSW   N/A     69  28  22 W6        30.20F
$$

TXZ031-032-036>038-042>044-271900-
TEXAS TECH WEST TEXAS MESONET/ROLLING PLAINS

CITY           SKY/WX    TMP DP  RH WIND       PRES   REMARKS
ASPERMONT 3NE    N/A     69  33  27 E7        30.22F
FLUVANNA 3WNW    N/A     68  30  23 E3        30.21F
GRAHAM 5SSW      N/A     69  29  22 SE8       30.20S
GUTHRIE 10WSW    N/A     67  33  28 E7G17     30.22S
HASKELL 1NW      N/A     65  34  32 NE10      30.22F
JAYTON 1SSE      N/A     68  31  25 E5        30.22S
KNOX CITY 3NW    N/A     66  35  30 E7        30.23F
LK A HENRY 1NW   N/A     68  30  24 E1        30.21F
NORTHFIELD 1S    N/A     65  31  28 E7        30.23F
ODELL 4ENE       N/A     60  38  43 NE12      30.26F
PADUCAH 10SW     N/A     66  31  27 E8        30.22F
POST 1NE         N/A     69  30  23 E8        30.20F
RRING SPRGS 3N   N/A     64  31  28 E9        30.23S
SEYMOUR 3NW      N/A     64  33  31 NE12      30.23F
SPUR 1W          N/A     66  30  26 E9        30.21S
WEINERT 2NNE     N/A     65  37  35 NE6       30.23F
WHITE RVR 6NE    N/A     68  28  21 E8        30.21S
$$

TXZ052-054-060>062-072-078-127-140-154-169-271900-
TEXAS TECH WEST TEXAS MESONET/PERMIAN BASIN/
CONCHO VALLEY/BIG COUNTRY/EDWARDS PLATEAU

CITY           SKY/WX    TMP DP  RH WIND       PRES   REMARKS
COYANOSA 2N      N/A     73  38  27 S5        30.22F
JUNCTION 1SSW    N/A     72  32  23 W3        30.24F
MERTZON 3NNE     N/A     72  29  20 S6        30.23F
SAN ANGELO 7NW   N/A     72  29  20 W6        30.22S
STRLNG CT 4WSW   N/A     72  29  20 SW3       30.23F
ST LAWRNCE 5SW   N/A     72  22  15 SW9       30.23S
SWEETWATR 11SW   N/A     67  31  27 CALM      30.23F
WALL 1E          N/A     71  32  24 W10       30.23S
$$

TXZ055-058-074-075-080-082-271900-
TEXAS TECH WEST TEXAS MESONET/FAR WEST/SOUTHWEST MOUNTAINS/TRANS PECOS

CITY           SKY/WX    TMP DP  RH WIND       PRES   REMARKS
PRSMN GAP BBNP   N/A     69  37  30 SW14      30.26F
$$



USA.gov is the U.S. government's official web portal to all federal, state and local government web resources and services.